Poplar Bluff, MO

1:20 AM CST on February 23, 2017 (GMT -0600)
Poplar Bluff Municipal

Weather History for KPOF - November, 2013

Change the Weather History Date:

Tuesday, November 12, 2013

  Actual Average Record
Temperature  
Mean Temperature 37 °F -  
Max Temperature 46 °F 56 °F 80 °F (1955)
Min Temperature 27 °F 35 °F 19 °F (1950)
Degree Days  
Heating Degree Days 28    
Moisture  
Dew Point 20 °F    
Average Humidity 51    
Maximum Humidity 67    
Minimum Humidity 28    
Precipitation  
Precipitation 0.01 in - - ()
Sea Level Pressure  
Sea Level Pressure 30.63 in    
Wind  
Wind Speed 14 mph (North)    
Max Wind Speed 23 mph    
Max Gust Speed 29 mph    
Visibility 10 miles    
Events Snow    
Averages and records for this station are not official NWS values.
T = Trace of Precipitation, MM = Missing Value Source: NWS Daily Summary

Daily Weather History Graph

Daily Weather History Graph

Search for Another Location

Airport or City:

Trip Planner

Search our weather history database for the weather conditions in past years. The results will help you decide how hot, cold, wet, or windy it might be!

Date:

Astronomy

Nov. 12, 2013 Rise Set
Actual Time 6:36 AM CST 4:54 PM CST
Civil Twilight 6:09 AM CST 5:21 PM CST
Nautical Twilight 5:37 AM CST 5:52 PM CST
Astronomical Twilight 5:07 AM CST 6:23 PM CST
Moon 2:01 PM CST (11/12) 1:33 AM CST (11/12)
Length of Visible Light 11h 12m
Length of Day
10h 17m
Waxing Gibbous, 76% of the Moon is Illuminated
Nov 12
Waxing Gibbous
Nov 17
Full
Nov 25
Last Quarter
Dec 2
New
Dec 9
First Quarter

Hourly Weather History & Observations

Time (CST) Temp. Windchill Dew Point Humidity Pressure Visibility Wind Dir Wind Speed Gust Speed Precip Events Conditions
12:21 AM 46.4 °F 39.2 °F 35.6 °F 66% 30.35 in 10.0 mi NNE 18.4 mph 27.6 mph N/A   Overcast
12:53 AM 45.0 °F 37.6 °F 34.0 °F 65% 30.38 in 10.0 mi North 17.3 mph 27.6 mph N/A   Overcast
1:53 AM 43.0 °F 34.5 °F 30.9 °F 62% 30.41 in 10.0 mi NNE 19.6 mph 25.3 mph N/A   Overcast
2:53 AM 42.1 °F 34.9 °F 30.0 °F 62% 30.45 in 10.0 mi NNE 13.8 mph 25.3 mph N/A   Overcast
3:53 AM 39.0 °F 31.0 °F 28.9 °F 67% 30.48 in 10.0 mi NNE 13.8 mph 21.9 mph N/A   Overcast
4:53 AM 37.9 °F 27.9 °F 25.0 °F 60% 30.53 in 9.0 mi North 19.6 mph 26.5 mph 0.00 in Snow Light Snow
5:53 AM 37.0 °F 27.7 °F 25.0 °F 62% 30.57 in 9.0 mi North 16.1 mph 23.0 mph 0.00 in Snow Light Snow
6:39 AM 35.6 °F 24.0 °F 21.2 °F 56% 30.60 in 9.0 mi North 23.0 mph 28.8 mph 0.00 in Snow Light Snow
6:53 AM 36.0 °F 29.0 °F 21.9 °F 57% 30.62 in 9.0 mi North 9.2 mph 24.2 mph 0.00 in Snow Light Snow
7:53 AM 35.1 °F 25.9 °F 19.9 °F 54% 30.67 in 9.0 mi North 13.8 mph 21.9 mph 0.00 in Snow Light Snow
8:53 AM 35.1 °F 23.8 °F 18.0 °F 50% 30.70 in 9.0 mi North 20.7 mph 25.3 mph 0.00 in Snow Light Snow
9:53 AM 37.9 °F 30.0 °F 19.0 °F 47% 30.70 in 9.0 mi North 12.7 mph 21.9 mph 0.00 in Snow Light Snow
10:53 AM 39.9 °F 32.1 °F 17.1 °F 40% 30.71 in 10.0 mi North 13.8 mph 21.9 mph 0.00 in   Clear
11:53 AM 41.0 °F 32.8 °F 16.0 °F 36% 30.69 in 10.0 mi North 16.1 mph 23.0 mph 0.01 in   Clear
12:53 PM 42.1 °F 35.2 °F 15.1 °F 34% 30.67 in 10.0 mi North 12.7 mph 21.9 mph N/A   Clear
1:53 PM 43.0 °F 36.0 °F 15.1 °F 32% 30.67 in 10.0 mi NNE 13.8 mph 21.9 mph N/A   Clear
2:53 PM 43.0 °F 37.7 °F 12.0 °F 28% 30.67 in 10.0 mi North 9.2 mph - N/A   Clear
3:53 PM 42.1 °F 35.2 °F 10.9 °F 28% 30.69 in 10.0 mi North 12.7 mph 23.0 mph N/A   Clear
4:53 PM 39.0 °F 33.4 °F 12.0 °F 33% 30.69 in 10.0 mi NNE 8.1 mph - N/A   Clear
5:53 PM 35.1 °F 29.3 °F 16.0 °F 46% 30.70 in 10.0 mi North 6.9 mph - N/A   Clear
6:53 PM 34.0 °F 29.8 °F 15.1 °F 46% 30.70 in 10.0 mi NNE 4.6 mph - N/A   Clear
7:53 PM 33.1 °F 28.7 °F 16.0 °F 50% 30.71 in 10.0 mi NNE 4.6 mph - N/A   Clear
8:53 PM 30.0 °F 24.1 °F 17.1 °F 59% 30.73 in 10.0 mi North 5.8 mph - N/A   Clear
9:53 PM 30.0 °F 25.2 °F 16.0 °F 56% 30.74 in 10.0 mi NNE 4.6 mph - N/A   Clear
10:53 PM 28.9 °F 25.2 °F 18.0 °F 64% 30.72 in 10.0 mi North 3.5 mph - N/A   Clear
11:53 PM 27.0 °F 23.0 °F 17.1 °F 66% 30.73 in 10.0 mi North 3.5 mph - N/A   Clear